FW8483 Weather Reports


time (UTC)temp
C
wind
direction
speed
KPH
gust
KPH
rain 1hr
cm
rain 24hr
cm
rain mn
cm
humidity
%
barometer
mb
20260905114526 23 185 0.0 0.0 0.00 4.27 0.00 98 1014.2
20260905114011 23 169 0.0 3.2 0.00 4.27 0.00 98 1014.1
20260905113512 23 172 0.0 3.2 0.00 4.27 0.00 98 1014.0
20260905113030 23 180 1.6 3.2 0.00 4.27 0.00 98 1013.8
20260905112515 23 193 0.0 0.0 0.00 4.27 0.00 98 1013.9
20260905112015 23 180 0.0 0.0 0.00 4.27 0.00 98 1013.9
20260905111536 23 70 0.0 0.0 0.00 4.27 0.00 98 1013.9
20260905111015 23 70 0.0 0.0 0.00 4.27 0.00 98 1013.9
20260905110514 23 70 0.0 0.0 0.00 4.27 0.00 98 1013.9
20260905110032 23 70 0.0 0.0 0.00 4.27 0.00 98 1013.9
20260905105519 23 70 0.0 0.0 0.00 4.27 0.00 98 1013.9
20260905105010 23 70 0.0 0.0 0.00 4.27 0.00 98 1013.9
20260905104525 23 70 0.0 0.0 0.00 4.27 0.00 98 1013.9
20260905104010 23 70 0.0 0.0 0.00 4.27 0.00 98 1013.9
20260905103511 23 70 0.0 0.0 0.00 4.27 0.00 98 1013.9
20260905103025 23 70 0.0 0.0 0.00 4.27 0.00 98 1013.8
20260905102513 23 70 0.0 0.0 0.00 4.27 0.00 98 1013.8
20260905102015 23 70 0.0 0.0 0.00 4.27 0.00 98 1013.7
20260905101531 23 70 0.0 0.0 0.00 4.27 0.00 98 1013.9
20260905101014 23 70 0.0 0.0 0.00 4.27 0.00 98 1013.9
20260905100514 23 70 0.0 0.0 0.00 4.27 0.00 98 1013.9
20260905100033 23 70 0.0 0.0 0.00 4.27 0.00 98 1013.9
20260905095515 23 70 0.0 0.0 0.00 4.27 0.00 98 1013.8
20260905095016 23 70 0.0 0.0 0.00 4.27 0.00 98 1013.8
20260905094532 23 70 0.0 0.0 0.00 4.27 0.00 98 1013.8
20260905094008 23 79 0.0 0.0 0.00 4.27 0.00 98 1013.9
20260905093511 23 79 0.0 0.0 0.00 4.27 0.00 98 1013.9
20260905093026 23 79 0.0 0.0 0.00 4.27 0.00 98 1013.8
20260905092511 23 79 0.0 0.0 0.00 4.27 0.00 98 1013.8
20260905092010 23 79 0.0 0.0 0.00 4.27 0.00 98 1013.8
20260905091527 23 79 0.0 0.0 0.00 4.27 0.00 98 1013.7
20260905091015 23 80 0.0 0.0 0.00 4.27 0.00 98 1013.7
20260905090515 23 42 0.0 0.0 0.00 4.27 0.00 98 1013.6
20260905090039 23 42 0.0 0.0 0.00 4.27 0.00 98 1013.6
20260905085514 23 42 0.0 0.0 0.00 4.27 0.00 98 1013.7
20260905085005 23 42 0.0 0.0 0.00 4.27 0.00 98 1013.7
20260905084515 23 42 0.0 0.0 0.00 4.27 0.00 98 1013.7
20260905084008 23 42 0.0 0.0 0.00 4.27 0.00 98 1013.6
20260905083508 23 42 0.0 0.0 0.00 4.27 0.00 98 1013.6
20260905083033 23 42 0.0 0.0 0.00 4.27 0.00 98 1013.6
20260905082510 23 42 0.0 0.0 0.00 4.27 0.00 98 1013.7
20260905082013 23 42 0.0 1.6 0.00 4.27 0.00 98 1013.6
20260905081503 23 42 0.0 3.2 0.00 4.27 0.00 98 1013.5
20260905081003 23 42 1.6 3.2 0.00 4.27 0.00 98 1013.4
20260905080503 23 41 0.0 0.0 0.00 4.27 0.00 98 1013.5
20260905080009 23 51 0.0 0.0 0.00 4.27 0.00 98 1013.4
20260905075506 23 51 0.0 0.0 0.00 4.27 0.00 98 1013.5
20260905075003 23 51 0.0 0.0 0.00 4.27 0.00 98 1013.4
20260905074515 23 51 0.0 0.0 0.00 4.27 0.00 98 1013.3
20260905074006 23 51 0.0 0.0 0.00 4.27 0.00 98 1013.4
20260905073508 23 51 0.0 0.0 0.00 4.27 0.00 98 1013.4
20260905073024 23 51 0.0 0.0 0.00 4.27 0.00 98 1013.3
20260905072511 23 51 0.0 0.0 0.00 4.27 0.00 98 1013.4
20260905072011 23 51 0.0 0.0 0.00 4.27 0.00 98 1013.5
20260905071527 23 93 0.0 0.0 0.00 4.27 0.00 98 1013.4
20260905071016 23 93 0.0 0.0 0.00 4.27 0.00 98 1013.3
20260905070502 23 93 0.0 0.0 0.00 4.27 0.00 98 1013.4
20260905070012 23 80 0.0 0.0 0.00 4.27 0.00 98 1013.4
20260905065502 23 80 0.0 0.0 0.00 4.27 0.00 98 1013.3
20260905065003 23 80 0.0 0.0 0.00 4.27 0.00 98 1013.2
20260905064514 23 178 0.0 0.0 0.00 4.27 0.00 98 1013.3
20260905064003 23 178 0.0 0.0 0.00 4.27 0.00 98 1013.3
20260905063506 23 178 0.0 0.0 0.00 4.27 0.00 98 1013.4
20260905063017 23 178 0.0 0.0 0.00 4.27 0.00 98 1013.5
20260905062507 23 163 0.0 0.0 0.00 4.27 0.00 98 1013.5
20260905062011 23 163 0.0 0.0 0.00 4.27 0.00 98 1013.5
20260905061525 23 163 0.0 0.0 0.00 4.27 0.00 98 1013.5
20260905061011 23 163 0.0 0.0 0.00 4.27 0.00 98 1013.5
20260905060511 23 163 0.0 0.0 0.00 4.27 0.00 98 1013.6
20260905060005 23 163 0.0 0.0 0.00 4.27 0.00 98 1013.6
20260905055505 23 163 0.0 0.0 0.00 4.27 0.00 98 1013.6
20260905055004 23 163 0.0 0.0 0.03 4.27 0.00 98 1013.6
20260905054512 23 163 0.0 0.0 0.03 4.27 0.00 98 1013.6
20260905054007 23 163 0.0 0.0 0.03 4.27 0.00 98 1013.6
20260905053504 23 163 0.0 0.0 0.03 4.27 0.00 98 1013.6
20260905053014 23 163 0.0 0.0 0.03 4.27 0.00 98 1013.7
20260905052507 23 81 0.0 0.0 0.03 4.27 0.00 98 1013.8
20260905052009 23 81 0.0 0.0 0.03 4.27 0.00 98 1013.9
20260905051529 23 81 0.0 0.0 0.03 4.27 0.00 98 1013.9
20260905051010 23 81 0.0 0.0 0.03 4.27 0.00 98 1013.9
20260905050512 23 81 0.0 0.0 0.03 4.27 0.00 98 1013.9
20260905050027 23 81 0.0 0.0 0.03 4.27 0.00 98 1013.8
20260905045515 23 81 0.0 0.0 0.03 4.27 4.27 98 1013.9
20260905045003 23 81 0.0 0.0 0.00 4.24 4.24 98 1014.0
20260905044509 23 81 0.0 0.0 0.00 4.24 4.24 98 1014.1
20260905044004 23 81 0.0 0.0 0.00 4.24 4.24 98 1014.1
20260905043504 23 81 0.0 3.2 0.00 4.24 4.24 98 1014.1
20260905043016 23 81 0.0 3.2 0.00 4.24 4.24 98 1014.1
20260905042508 23 81 1.6 4.8 0.00 4.24 4.24 98 1014.2
20260905042007 23 57 3.2 4.8 0.00 4.24 4.24 98 1014.3
20260905041522 23 57 3.2 4.8 0.00 4.24 4.24 98 1014.2
20260905041009 23 81 3.2 6.4 0.00 4.24 4.24 98 1014.2
20260905040511 23 81 0.0 6.4 0.00 4.24 4.24 97 1014.2
20260905040033 23 57 1.6 4.8 0.00 4.24 4.24 97 1014.3
20260905035514 23 84 1.6 6.4 0.00 4.24 4.24 97 1014.3
20260905035015 23 38 3.2 6.4 0.00 4.24 4.24 97 1014.3
20260905034531 23 59 3.2 6.4 0.00 4.24 4.24 97 1014.4
20260905034003 23 18 1.6 4.8 0.00 4.24 4.24 98 1014.4
20260905033503 23 62 0.0 0.0 0.00 4.24 4.24 98 1014.6
20260905033010 23 36 0.0 0.0 0.00 4.24 4.24 97 1014.5
20260905032502 23 36 0.0 0.0 0.00 4.24 4.24 97 1014.5
20260905032006 23 36 0.0 0.0 0.00 4.24 4.24 97 1014.6
20260905031520 23 36 0.0 0.0 0.00 4.24 4.24 97 1014.6
20260905031008 23 36 0.0 4.8 0.00 4.24 4.24 97 1014.6
20260905030510 23 29 0.0 4.8 0.00 4.24 4.24 97 1014.7
20260905030028 23 59 1.6 6.4 0.00 4.24 4.24 97 1014.8
20260905025512 23 62 3.2 6.4 0.00 4.24 4.24 97 1014.8
20260905025015 23 75 4.8 6.4 0.00 4.24 4.24 97 1014.9
20260905024532 23 92 0.0 4.8 0.00 4.24 4.24 97 1014.9
20260905024016 23 128 0.0 0.0 0.00 4.24 4.24 97 1014.8
20260905023516 23 128 0.0 0.0 0.00 4.24 4.24 97 1014.9
20260905023014 23 128 0.0 0.0 0.00 4.24 4.24 97 1014.8
20260905022506 23 128 0.0 0.0 0.00 4.24 4.24 97 1014.9
20260905022006 23 43 0.0 0.0 0.00 4.24 4.24 97 1015.1
20260905021516 23 43 0.0 0.0 0.00 4.24 4.24 97 1015.0
20260905021009 23 43 0.0 0.0 0.00 4.24 4.24 97 1015.0
20260905020509 23 43 0.0 3.2 0.00 4.24 4.24 97 1014.9
20260905020026 23 43 0.0 3.2 0.00 4.24 4.24 97 1014.9
20260905015512 23 36 1.6 3.2 0.00 4.24 4.24 97 1014.9
20260905015010 23 28 0.0 0.0 0.00 4.24 4.24 97 1014.9
20260905014529 23 84 0.0 0.0 0.00 4.24 4.24 97 1014.9
20260905014014 23 84 0.0 0.0 0.00 4.24 4.24 97 1014.7
20260905013513 23 84 0.0 0.0 0.00 4.24 4.24 97 1014.6
20260905013034 23 84 0.0 0.0 0.00 4.24 4.24 97 1014.6
20260905012514 23 84 0.0 0.0 0.00 4.24 4.24 97 1014.5
20260905012004 23 84 0.0 0.0 0.00 4.24 4.24 97 1014.3
20260905011516 23 84 0.0 0.0 0.00 4.24 4.24 97 1014.2
20260905011007 24 84 0.0 0.0 0.00 4.24 4.24 97 1014.3
20260905010508 24 84 0.0 0.0 0.00 4.24 4.24 97 1014.2
20260905010021 24 84 0.0 0.0 0.00 4.24 4.24 97 1014.2
20260905005508 23 84 0.0 0.0 0.00 4.24 4.24 97 1014.2
20260905005011 24 84 0.0 0.0 0.00 4.24 4.24 97 1014.2
20260905004527 24 84 0.0 0.0 0.00 4.24 4.24 97 1014.3
20260905004017 24 84 0.0 0.0 0.00 4.24 4.24 97 1014.4
20260905003514 24 84 0.0 3.2 0.00 4.24 4.24 97 1014.4
20260905003033 24 84 0.0 3.2 0.00 4.24 4.24 97 1014.4
20260905002516 24 84 0.0 3.2 0.00 4.24 4.24 97 1014.5
20260905002017 24 84 1.6 3.2 0.00 4.24 4.24 97 1014.4
20260905001537 24 84 0.0 0.0 0.00 4.24 4.24 97 1014.3
20260905001003 24 84 0.0 1.6 0.00 4.24 4.24 97 1014.2
20260905000503 24 63 0.0 1.6 0.00 4.24 4.24 97 1014.2
20260905000026 24 350 0.0 3.2 0.00 4.24 4.24 97 1014.1
20260904235509 24 162 0.0 3.2 0.00 4.24 4.24 97 1014.1
20260904235008 24 321 0.0 3.2 0.00 4.24 4.24 97 1014.1
20260904234524 24 85 0.0 1.6 0.00 4.24 4.24 97 1014.2
20260904234013 24 200 0.0 0.0 0.00 4.24 4.24 97 1014.2
20260904233512 24 311 0.0 0.0 0.00 4.24 4.24 97 1014.2
20260904233004 24 311 0.0 0.0 0.00 4.24 4.24 97 1014.2
20260904232501 24 151 0.0 0.0 0.00 4.24 4.24 97 1014.1
20260904232003 24 151 0.0 0.0 0.00 4.24 4.24 97 1014.0
20260904231513 24 151 0.0 0.0 0.03 4.24 4.24 97 1014.0
20260904231003 24 151 0.0 0.0 0.03 4.24 4.24 97 1013.9
20260904230504 24 151 0.0 3.2 0.05 4.24 4.24 97 1013.9
20260904230041 24 151 0.0 3.2 0.08 4.24 4.24 97 1013.9
20260904225508 23 196 1.6 3.2 0.10 4.24 4.24 97 1013.8
20260904225010 23 173 0.0 3.2 0.13 4.24 4.24 97 1013.8
20260904224520 23 173 0.0 3.2 0.15 4.24 4.24 97 1013.8
20260904224010 23 197 1.6 3.2 0.18 4.24 4.24 97 1013.9
20260904223514 23 179 0.0 3.2 0.20 4.24 4.24 97 1013.9
20260904223027 23 172 1.6 3.2 0.23 4.24 4.24 97 1014.1
20260904222516 23 163 1.6 6.4 0.25 4.24 4.24 97 1014.0
20260904222003 23 121 1.6 6.4 0.28 4.24 4.24 97 1013.9
20260904221510 23 103 1.6 4.8 0.25 4.22 4.22 97 1013.9
20260904221003 23 57 1.6 4.8 0.28 4.22 4.22 97 1013.9
20260904220504 23 82 3.2 4.8 0.25 4.19 4.19 97 1014.1
20260904220014 23 57 0.0 4.8 0.25 4.17 4.17 97 1014.0
20260904215508 23 87 1.6 4.8 0.23 4.14 4.14 97 1014.0
20260904215009 23 111 1.6 3.2 0.20 4.11 4.11 97 1014.1
20260904214518 23 111 1.6 3.2 0.20 4.09 4.09 97 1014.1
20260904214011 23 111 1.6 3.2 0.18 4.06 4.06 97 1014.1
20260904213512 23 103 3.2 3.2 0.18 4.04 4.04 97 1014.1
20260904213027 23 107 1.6 3.2 0.18 4.01 4.01 97 1014.1
20260904212513 23 158 0.0 3.2 0.20 3.99 3.99 97 1014.0
20260904212015 23 158 0.0 3.2 0.23 3.96 3.96 97 1014.0
20260904211530 23 140 1.6 3.2 0.30 3.96 3.96 97 1014.1
20260904211003 23 23 1.6 4.8 0.38 3.94 3.94 97 1014.1
20260904210504 23 43 1.6 4.8 0.51 3.94 3.94 97 1014.2
20260904210019 23 9 1.6 3.2 0.61 3.91 3.91 97 1014.2
20260904205506 23 55 0.0 0.0 0.76 3.91 3.91 97 1014.2
20260904205007 23 352 0.0 3.2 0.94 3.91 3.91 97 1014.1
20260904204516 23 352 0.0 6.4 1.09 3.89 3.89 97 1014.0
20260904204008 23 38 1.6 8.0 1.27 3.89 3.89 96 1014.1
20260904203511 23 67 3.2 8.0 1.45 3.86 3.86 96 1014.1
20260904203025 23 85 4.8 8.0 1.65 3.84 3.84 96 1014.2
20260904202510 23 73 1.6 4.8 1.85 3.78 3.78 97 1014.2
20260904202014 23 58 0.0 4.8 2.03 3.73 3.73 97 1014.1
20260904201529 23 58 0.0 8.0 2.26 3.66 3.66 96 1014.3
20260904201014 22 42 3.2 8.0 2.39 3.56 3.56 96 1014.4
20260904200502 22 352 4.8 8.0 2.51 3.43 3.43 96 1014.5
20260904200027 22 5 3.2 4.8 2.64 3.30 3.30 96 1014.8
20260904195505 22 352 1.6 6.4 2.74 3.15 3.15 96 1014.9
20260904195011 22 17 3.2 6.4 2.77 2.95 2.95 96 1014.7
20260904194517 22 70 1.6 6.4 2.74 2.79 2.79 96 1014.6
20260904194010 22 5 0.0 14.5 2.59 2.62 2.62 96 1014.4
20260904193510 22 83 4.8 14.5 2.39 2.41 2.41 95 1014.6
20260904193021 22 82 6.4 11.3 2.16 2.18 2.18 95 1014.6
20260904192514 22 67 1.6 12.9 1.91 1.93 1.93 95 1014.7
20260904192012 22 107 6.4 14.5 1.68 1.70 1.70 95 1015.1
20260904191529 22 73 11.3 16.1 1.37 1.40 1.40 94 1015.2
20260904191017 22 119 6.4 17.7 1.14 1.17 1.17 94 1015.3
20260904190514 23 160 11.3 22.5 0.89 0.91 0.91 94 1015.2
20260904190029 23 173 9.7 22.5 0.61 0.64 0.64 94 1015.4
20260904185505 23 200 11.3 32.2 0.38 0.41 0.41 93 1015.4
20260904185007 23 203 11.3 41.8 0.18 0.20 0.20 90 1015.2
20260904184513 25 192 17.7 41.8 0.03 0.05 0.05 86 1015.4
20260904184007 26 151 11.3 29.0 0.00 0.03 0.03 83 1015.2
20260904183511 28 146 9.7 27.4 0.00 0.03 0.03 83 1015.3
20260904183017 28 195 0.0 4.8 0.00 0.03 0.03 83 1015.1
20260904182513 28 256 1.6 8.0 0.00 0.03 0.03 81 1014.9
20260904182016 28 341 3.2 17.7 0.00 0.03 0.03 81 1014.5
20260904181530 29 327 4.8 17.7 0.00 0.03 0.03 80 1014.1
20260904181020 28 31 6.4 17.7 0.00 0.03 0.03 83 1014.2
20260904180514 28 329 8.0 17.7 0.00 0.03 0.03 83 1014.2
20260904180028 29 28 8.0 17.7 0.00 0.03 0.03 82 1014.4
20260904175514 30 349 9.7 16.1 0.00 0.03 0.03 80 1014.5
20260904175015 30 344 4.8 14.5 0.00 0.03 0.03 82 1014.6
20260904174515 29 13 3.2 14.5 0.03 0.03 0.03 84 1014.6
20260904174006 28 40 4.8 12.9 0.03 0.03 0.03 84 1014.7
20260904173507 28 28 6.4 12.9 0.03 0.03 0.03 84 1014.9
20260904173017 28 319 8.0 14.5 0.03 0.03 0.03 85 1014.8
20260904172510 28 74 6.4 17.7 0.03 0.03 0.03 84 1014.9
20260904172010 28 352 8.0 17.7 0.03 0.03 0.03 84 1015.1
20260904171527 28 360 8.0 16.1 0.03 0.03 0.03 86 1015.3
20260904171011 28 329 4.8 9.7 0.03 0.03 0.03 85 1015.4
20260904170513 28 346 4.8 8.0 0.03 0.03 0.03 86 1015.4
20260904170043 29 334 4.8 6.4 0.03 0.03 0.03 87 1015.5
20260904165516 29 292 3.2 6.4 0.03 0.03 0.03 85 1015.5
20260904165014 29 271 0.0 8.0 0.03 0.03 0.03 84 1015.6
20260904164533 29 169 3.2 9.7 0.00 0.00 0.00 82 1015.7
20260904164015 29 159 4.8 9.7 0.00 0.00 0.00 80 1015.7
20260904163506 30 115 0.0 0.0 0.00 0.00 0.00 80 1015.8
20260904163017 30 267 0.0 6.4 0.00 0.00 0.00 80 1015.7
20260904162508 30 311 0.0 6.4 0.00 0.00 0.00 82 1015.7
20260904162010 30 53 1.6 8.0 0.00 0.00 0.00 82 1015.8
20260904161523 30 36 4.8 8.0 0.00 0.00 0.00 80 1015.8
20260904161015 30 33 3.2 6.4 0.00 0.00 0.00 80 1015.8
20260904160513 30 76 3.2 9.7 0.00 0.00 0.00 79 1015.8
20260904160028 30 109 4.8 8.0 0.00 0.00 0.00 77 1015.7
20260904155515 30 88 3.2 8.0 0.00 0.00 0.00 81 1015.7
20260904155016 30 91 3.2 8.0 0.00 0.00 0.00 78 1015.7
20260904154531 30 98 3.2 4.8 0.00 0.00 0.00 81 1015.6
20260904154017 29 88 0.0 0.0 0.00 0.00 0.00 78 1015.6
20260904153516 29 42 0.0 0.0 0.00 0.00 0.00 80 1015.6
20260904153032 29 42 0.0 4.8 0.00 0.00 0.00 79 1015.5
20260904152507 29 42 1.6 4.8 0.00 0.00 0.00 80 1015.5
20260904152006 29 113 1.6 9.7 0.00 0.00 0.00 81 1015.5
20260904151520 29 130 4.8 9.7 0.00 0.00 0.00 80 1015.5
20260904151012 29 27 1.6 4.8 0.00 0.00 0.00 83 1015.5
20260904150512 28 118 3.2 4.8 0.00 0.00 0.00 83 1015.4
20260904150033 28 142 4.8 6.4 0.00 0.00 0.00 83 1015.4
20260904145514 28 102 0.0 6.4 0.00 0.00 0.00 84 1015.4
20260904145017 28 92 3.2 4.8 0.00 0.00 0.00 86 1015.4
20260904144507 28 137 1.6 6.4 0.00 0.00 0.00 85 1015.3
20260904144004 28 119 1.6 8.0 0.00 0.00 0.00 86 1015.3
20260904143505 28 129 3.2 8.0 0.00 0.00 0.00 85 1015.2
20260904143011 28 97 3.2 6.4 0.00 0.00 0.00 86 1015.3
20260904142506 28 76 1.6 8.0 0.00 0.00 0.00 87 1015.2
20260904142009 28 129 3.2 12.9 0.00 0.00 0.00 85 1015.3
20260904141517 28 101 4.8 12.9 0.00 0.00 0.00 86 1015.3
20260904141009 28 67 3.2 8.0 0.00 0.00 0.00 86 1015.3
20260904140510 27 87 0.0 6.4 0.00 0.00 0.00 87 1015.3
20260904140025 27 105 1.6 6.4 0.00 0.00 0.00 87 1015.3
20260904135513 27 111 3.2 6.4 0.00 0.00 0.00 87 1015.3
20260904135014 27 114 3.2 6.4 0.00 0.00 0.00 88 1015.3
20260904134531 27 98 1.6 8.0 0.00 0.00 0.00 89 1015.3
20260904134016 27 105 3.2 9.7 0.00 0.00 0.00 90 1015.2
20260904133503 26 127 6.4 9.7 0.00 0.00 0.00 90 1015.3
20260904133009 26 78 3.2 8.0 0.00 0.00 0.00 91 1015.3
20260904132505 26 107 4.8 9.7 0.00 0.00 0.00 90 1015.4
20260904132002 26 103 3.2 9.7 0.00 0.00 0.00 90 1015.3
20260904131518 26 129 3.2 9.7 0.00 0.00 0.00 91 1015.4
20260904131009 26 132 4.8 9.7 0.00 0.00 0.00 90 1015.4
20260904130509 26 86 3.2 9.7 0.00 0.00 0.00 91 1015.4
20260904130020 26 101 3.2 6.4 0.00 0.00 0.00 91 1015.3
20260904125513 26 94 4.8 8.0 0.00 0.00 0.00 91 1015.2
20260904125016 26 88 3.2 8.0 0.00 0.00 0.00 91 1015.2
20260904124528 26 69 4.8 8.0 0.00 0.00 0.00 91 1015.2
20260904124013 26 54 4.8 6.4 0.00 0.00 0.00 92 1015.2
20260904123519 25 82 4.8 6.4 0.00 0.00 0.00 93 1015.2
20260904123008 25 83 3.2 6.4 0.00 0.00 0.00 93 1015.2
20260904122505 25 69 0.0 0.0 0.00 0.00 0.00 93 1015.1
20260904122005 25 65 0.0 3.2 0.00 0.00 0.00 94 1015.1
20260904121514 25 90 0.0 4.8 0.00 0.00 0.00 94 1015.0
20260904121008 25 90 1.6 4.8 0.00 0.00 0.00 94 1015.0
20260904120510 25 77 1.6 4.8 0.00 0.00 0.00 94 1014.8
20260904120027 24 71 0.0 3.2 0.00 0.00 0.00 95 1014.9
20260904115510 24 146 0.0 3.2 0.00 0.00 0.00 95 1014.9
20260904115013 24 69 0.0 3.2 0.00 0.00 0.00 96 1014.8